Theta_e
335 334 334 334 333 334 332 331 331 329 330 331 329 329 331 331 331 332 330 329 330 330 330 330 330 328 328 328 328 330 332 332 332 331 331 330 330 326 323 322 322 322 323 322 327 330 327 325 326 326 326 326 326 325 324 325 325 326 327 326 326 323 319 314 311 308 305 303 303 305 307 308 309 310 312 313 313 313 312 314 317 318 318 318 318
335 335 335 334 333 333 333 333 333 332 331 332 331 330 331 331 331 331 331 331 331 331 331 331 330 328 327 328 327 329 331 332 333 332 332 331 330 328 325 324 322 322 322 322 326 329 328 327 325 323 324 325 325 325 324 324 325 326 326 327 327 326 323 318 314 310 307 304 303 302 304 306 306 306 308 309 309 309 309 309 312 314 315 315 316
335 334 334 334 333 332 333 333 333 333 332 332 332 332 332 331 331 331 330 331 331 331 331 330 330 329 328 327 326 327 330 332 332 332 333 332 331 329 327 325 324 323 323 323 325 328 329 328 327 323 323 324 325 325 324 324 324 325 325 326 328 328 325 321 316 313 310 306 304 303 303 304 304 304 305 307 309 309 307 307 310 311 313 314 314
334 333 333 333 333 332 333 333 333 333 333 332 332 332 332 332 331 331 331 330 330 330 330 330 330 329 328 327 327 327 329 332 333 332 332 332 332 331 329 327 325 325 325 325 324 325 328 329 328 326 324 324 325 326 325 325 323 323 325 325 326 327 326 324 319 315 313 309 306 304 302 302 303 303 304 306 307 307 307 309 311 312 313 313 314
333 332 331 332 332 332 333 334 333 333 333 332 332 332 332 332 331 331 331 330 330 330 330 330 330 330 329 328 328 327 328 331 332 332 332 332 332 331 330 328 327 327 326 326 325 324 327 328 328 327 327 326 324 324 325 325 324 321 324 325 323 326 327 325 322 318 315 312 309 306 303 303 302 303 303 304 305 306 306 308 311 313 314 314 314
332 331 331 331 332 332 333 335 334 333 332 332 332 332 331 331 331 331 330 330 330 330 329 330 330 329 329 329 329 329 329 329 330 331 332 332 332 331 330 328 327 327 327 327 326 325 326 326 327 327 327 327 325 325 323 324 325 321 322 325 322 324 327 326 325 322 318 315 312 309 306 304 303 303 302 303 304 306 306 306 309 312 313 314 314
332 331 331 331 332 332 332 334 334 333 333 332 332 331 330 330 331 329 329 329 329 329 329 330 330 329 330 330 329 329 329 329 329 330 331 332 332 331 330 329 328 328 328 328 327 327 326 325 326 326 326 327 326 328 326 324 326 323 322 325 323 323 325 326 326 325 322 318 315 312 309 306 304 304 303 302 303 304 305 307 307 307 309 312 311
332 331 332 331 332 333 333 333 333 333 334 334 334 332 330 331 330 328 328 330 330 330 330 330 330 329 329 329 328 328 329 329 329 329 330 331 332 332 331 329 328 328 328 328 328 327 328 326 326 326 326 326 327 328 329 328 327 326 324 325 324 323 324 325 326 326 325 322 318 315 312 310 308 305 302 301 302 304 305 306 305 305 305 307 307
332 332 332 332 333 333 333 332 332 333 334 335 334 331 330 331 331 329 328 330 331 331 330 330 329 329 328 328 328 327 327 327 328 328 329 331 332 332 331 330 329 329 328 328 328 328 328 328 327 327 327 327 327 327 328 329 328 327 326 326 326 325 324 324 324 325 325 324 322 320 316 314 311 307 304 301 302 304 304 304 304 304 304 304 305
332 332 332 332 333 333 333 331 331 332 333 334 334 331 330 330 330 330 329 329 330 330 330 329 328 328 328 328 328 327 326 326 326 327 329 329 330 330 330 331 330 330 329 328 328 328 328 328 328 328 328 328 327 327 327 329 330 329 327 327 327 326 325 323 323 324 325 325 324 324 321 317 313 310 307 304 302 302 303 304 303 303 303 304 304
332 332 332 332 332 332 332 332 332 333 333 334 333 330 330 329 330 331 329 329 329 329 329 329 328 328 328 328 328 327 327 326 325 326 328 328 328 328 329 329 330 330 331 330 329 328 328 328 328 329 329 329 329 328 328 328 329 330 328 328 328 328 326 324 324 324 325 326 325 325 324 322 318 314 311 308 305 302 301 303 302 302 303 303 304
332 331 331 331 331 332 331 331 332 332 332 332 332 330 330 329 329 330 330 329 329 329 329 330 329 329 330 329 328 328 327 326 326 326 327 327 327 327 328 328 328 329 330 331 330 330 329 329 328 328 328 329 329 329 330 328 328 329 329 329 330 329 328 326 324 323 323 324 326 326 325 325 322 318 315 313 310 307 304 303 302 301 302 302 305
330 330 330 329 329 330 330 330 330 330 331 331 332 331 330 329 329 330 331 330 329 329 330 331 330 331 330 329 328 327 327 326 326 326 325 326 326 326 327 327 327 328 329 329 330 330 330 330 330 329 329 329 329 329 329 330 329 328 328 330 331 330 329 327 326 326 322 321 324 327 327 326 324 322 321 319 318 314 310 307 304 302 300 300 304
328 328 329 329 328 328 328 329 329 329 330 330 331 331 331 330 329 330 331 331 330 329 330 331 330 330 329 328 329 327 326 326 326 327 326 325 324 323 325 326 326 327 328 328 328 329 329 329 329 330 330 330 329 329 328 328 329 328 328 329 330 331 331 330 329 329 326 321 320 323 326 326 325 324 324 324 324 321 317 314 310 306 303 300 300
326 326 328 329 328 327 327 328 329 329 330 330 330 331 331 330 329 330 331 331 330 329 330 330 329 328 328 329 331 331 329 327 326 327 326 325 324 323 324 325 326 327 328 328 328 327 328 328 328 329 329 330 330 330 329 329 328 329 328 328 329 329 331 331 331 330 330 327 322 321 322 323 323 324 324 325 325 324 323 321 317 313 309 304 300
324 324 326 328 327 325 325 327 328 328 329 330 330 330 331 330 329 330 330 330 330 329 329 329 328 328 329 328 327 330 334 329 327 329 327 326 326 325 325 325 326 326 326 326 326 326 326 326 327 328 329 329 330 330 330 329 329 330 330 329 328 328 328 330 332 331 331 330 328 325 322 321 321 321 322 323 323 323 323 323 321 319 316 311 306
324 324 325 326 325 325 325 326 326 327 327 328 328 329 330 330 330 330 330 330 329 328 328 328 328 328 328 328 326 330 334 329 327 330 327 327 326 325 326 327 326 326 324 322 322 322 323 324 325 327 328 328 329 329 329 329 329 329 329 331 330 329 327 327 329 332 332 332 331 329 326 323 322 321 321 322 322 322 321 320 321 321 320 318 314
322 324 324 325 325 325 326 326 326 326 326 326 326 326 327 328 329 329 329 330 329 328 327 328 328 328 327 328 328 330 330 328 329 330 327 327 326 324 326 326 325 326 324 323 323 322 323 323 323 324 324 325 327 328 328 328 329 329 329 330 331 331 329 328 327 329 331 333 332 331 329 328 326 325 324 324 323 322 322 321 321 322 322 322 320
321 322 323 324 324 323 325 325 326 326 325 324 325 325 326 326 327 328 328 328 328 328 327 327 328 328 328 328 328 328 328 327 330 331 332 330 326 324 326 326 326 325 325 325 324 324 324 322 321 320 320 322 325 326 327 328 328 328 329 329 330 331 331 329 328 327 328 331 332 332 332 331 330 329 329 328 327 326 325 325 324 324 324 324 323
320 320 321 323 322 322 322 323 326 326 324 324 325 325 325 326 326 327 327 326 327 327 327 327 328 328 328 328 327 327 326 327 327 328 331 331 328 326 323 323 325 325 325 326 324 323 321 319 318 319 319 320 322 323 325 327 327 328 329 328 329 330 330 330 329 329 327 328 329 331 332 332 332 331 331 330 330 329 328 328 328 327 327 327 326
320 318 319 322 322 322 322 323 325 324 323 324 324 324 324 325 325 325 325 326 326 327 327 327 327 327 327 327 327 327 326 326 326 325 327 329 330 327 319 315 319 321 323 324 323 322 319 318 318 318 317 316 316 318 321 322 323 325 327 328 329 329 329 329 329 329 329 328 327 328 330 332 333 332 332 331 331 331 330 330 329 329 329 328 328
318 316 316 319 319 319 319 320 322 322 322 322 322 323 323 323 324 324 325 325 324 324 323 324 325 326 327 327 327 326 323 320 320 322 323 322 324 323 315 313 315 315 315 316 316 317 317 317 319 319 317 316 316 316 316 317 317 318 319 323 326 329 329 328 329 329 330 329 328 327 328 330 331 331 331 331 332 331 331 331 330 330 330 329 329
316 316 314 315 315 314 313 312 314 316 316 317 318 319 321 322 322 322 323 322 319 318 318 319 320 322 323 323 322 320 317 315 314 315 317 316 319 318 313 312 314 313 312 313 313 314 314 315 317 318 318 318 319 318 316 317 316 314 316 317 319 324 328 329 329 329 330 330 329 329 328 328 328 329 330 330 331 332 332 331 331 331 331 329 328
314 314 314 314 314 313 311 311 312 311 310 310 313 314 316 319 321 321 320 319 317 317 316 316 317 317 316 316 316 315 314 314 314 313 313 314 316 314 311 312 314 312 311 313 313 314 314 313 314 314 316 318 320 320 319 320 320 321 323 322 320 323 327 329 329 329 330 330 330 330 329 328 327 327 328 328 330 331 331 331 331 332 331 331 330
313 313 313 314 314 312 312 313 313 311 308 307 307 308 309 312 316 318 318 317 316 316 316 315 315 315 314 312 312 312 313 313 313 313 314 313 313 312 311 313 313 312 312 312 313 313 313 313 313 312 313 315 316 317 318 319 323 326 327 326 326 327 328 330 330 329 329 330 330 330 329 328 327 328 327 328 329 331 331 331 332 331 331 331 331
311 311 312 312 312 312 314 314 313 310 308 306 305 305 305 305 308 310 313 314 313 313 314 313 313 312 312 311 311 311 311 312 312 312 313 313 312 312 313 313 313 311 311 312 313 313 312 312 313 312 311 312 312 313 314 314 317 322 325 327 327 326 326 327 327 327 327 327 326 326 325 325 325 325 326 327 328 328 328 329 329 329 330 331 331
308 310 311 311 311 313 314 314 313 312 310 306 305 305 304 303 303 304 306 308 310 312 312 312 311 309 308 308 309 310 310 309 309 309 310 312 312 312 312 314 316 314 312 312 312 312 312 311 312 312 310 310 310 309 310 311 312 314 318 321 321 319 319 320 321 322 323 325 325 326 325 325 325 325 325 325 325 325 325 326 326 326 327 328 329
309 311 311 311 311 312 314 314 314 315 313 309 306 305 304 303 303 303 304 304 306 310 312 311 310 309 308 307 307 308 308 307 305 305 308 311 312 311 311 312 315 317 315 316 315 312 311 310 310 310 308 307 307 307 308 309 310 311 311 313 314 314 314 315 316 317 319 321 323 325 325 325 325 324 323 322 322 323 323 324 324 325 326 326 327
310 312 312 311 308 309 312 314 315 315 315 314 310 305 304 304 305 304 304 304 304 307 310 311 311 310 311 311 308 307 309 308 307 307 308 309 310 310 310 309 311 315 317 319 318 313 311 310 309 309 307 306 307 308 308 309 309 310 310 311 311 310 311 312 312 313 314 316 319 321 324 325 325 323 321 320 319 320 321 321 322 322 323 325 325
310 312 312 311 308 306 307 311 314 314 314 314 311 307 305 305 306 306 305 304 303 304 306 308 310 311 311 311 309 307 309 310 310 309 309 309 309 309 309 309 309 311 312 315 316 313 310 310 309 308 307 307 308 309 309 309 309 308 308 309 309 309 309 309 310 310 311 312 314 316 318 320 321 320 320 319 320 320 321 321 321 320 321 322 323
311 311 312 311 308 306 305 306 309 312 312 312 311 309 307 307 307 307 309 308 305 305 306 306 308 310 310 309 308 307 307 310 310 310 309 309 309 309 309 310 309 310 310 310 312 311 309 308 308 307 307 308 308 307 307 306 306 305 306 307 308 308 308 309 309 309 309 309 310 311 312 313 314 314 314 315 316 317 318 319 320 320 320 320 321
313 311 312 311 309 307 305 305 306 307 309 311 312 311 310 310 308 308 310 309 307 306 307 307 307 309 309 309 308 307 307 308 309 309 308 308 309 309 310 310 309 309 309 309 310 309 308 307 307 307 307 307 306 306 305 304 303 304 306 306 307 307 308 308 308 309 309 309 309 309 309 310 310 311 311 311 312 312 313 315 318 320 320 320 319
315 313 312 311 309 308 307 306 306 306 307 310 311 310 311 312 311 309 309 309 309 309 308 308 308 308 309 309 310 309 307 305 306 308 308 308 308 308 309 309 308 307 307 307 307 307 307 307 307 306 306 306 305 305 304 304 304 305 305 306 306 306 307 307 308 308 308 309 309 309 309 309 310 310 311 311 312 313 313 313 314 317 320 320 319
317 316 314 313 312 310 309 308 308 307 307 307 308 309 310 312 312 311 311 310 311 312 311 310 309 308 309 309 309 310 309 306 304 306 308 307 307 308 308 307 307 306 306 306 306 306 306 306 306 305 305 305 304 303 303 304 305 305 305 305 305 306 306 306 307 308 308 308 309 309 309 310 310 310 310 311 312 314 315 315 314 315 317 320 320
318 318 317 316 315 314 312 312 311 311 310 309 308 309 309 310 311 312 312 310 311 312 313 312 311 309 308 308 309 309 309 308 305 305 307 307 308 308 307 307 306 306 305 305 304 304 304 304 304 304 303 303 302 303 303 304 304 304 304 304 305 305 306 306 306 307 307 308 308 308 309 309 309 309 309 310 310 311 314 316 316 316 317 319 320
319 318 318 317 317 316 315 315 314 314 313 312 311 310 310 310 310 311 312 311 310 311 312 313 312 311 309 309 309 309 309 309 307 305 306 308 308 308 308 307 306 305 304 304 303 303 302 302 302 302 301 299 299 299 300 300 301 302 302 303 304 304 305 305 305 306 306 306 307 307 307 308 308 308 308 309 309 309 311 313 315 317 318 319 321
319 319 318 318 318 318 317 317 317 316 316 314 314 313 313 312 311 311 311 311 312 312 312 312 313 312 311 311 310 310 309 309 309 307 306 307 308 308 307 306 304 303 302 301 300 300 300 299 299 298 296 295 295 295 296 297 298 299 300 301 302 302 303 304 304 304 304 305 306 306 306 306 307 307 307 308 308 309 310 310 312 314 316 317 319
319 318 319 318 318 318 318 318 319 318 317 316 316 316 316 315 313 312 312 312 312 313 312 312 312 312 312 311 311 310 309 309 309 308 307 306 307 307 306 305 302 299 297 297 297 297 297 296 295 295 295 295 295 295 295 296 297 297 298 298 299 299 300 301 302 302 302 303 304 305 305 305 306 306 307 307 308 309 309 310 310 311 312 314 315
320 320 320 319 319 319 318 319 319 319 318 318 318 318 317 317 316 315 314 313 313 313 314 312 312 312 311 310 311 310 309 309 308 307 306 306 306 306 305 303 300 298 295 294 295 295 295 295 295 296 296 295 295 296 296 297 297 297 298 298 298 298 298 298 299 300 300 301 302 303 304 305 305 306 306 306 307 307 308 308 309 309 310 310 311
320 321 321 321 320 319 319 319 319 319 319 318 318 319 319 318 317 316 315 315 314 314 314 313 312 312 311 311 310 310 309 308 307 307 307 305 305 305 304 302 300 298 295 293 294 295 296 296 296 296 296 296 296 296 297 297 297 298 298 298 298 298 298 298 298 299 299 299 300 301 303 304 305 305 306 306 306 306 306 307 306 307 307 308 308
320 320 320 320 320 319 320 320 320 319 319 319 318 319 319 318 318 317 316 316 315 315 315 314 313 312 312 311 310 309 309 308 307 306 306 304 304 304 303 302 300 298 296 295 296 297 297 297 296 296 296 296 296 296 296 297 297 297 298 298 298 298 298 298 298 298 299 299 299 299 300 300 301 301 302 303 304 304 304 304 304 304 305 305 305
321 320 320 320 320 320 319 320 319 320 319 319 319 319 318 318 318 318 317 316 316 315 315 315 313 312 312 311 310 309 309 308 307 306 305 304 304 303 302 301 300 298 298 298 298 298 298 297 297 297 297 296 296 296 296 297 297 297 298 298 298 298 298 298 298 298 298 298 298 297 297 297 297 298 298 299 300 300 300 301 301 301 301 302 303
319 319 320 320 321 321 320 320 320 320 320 320 320 320 319 319 318 318 318 317 316 316 315 315 313 312 312 311 310 310 309 308 306 305 304 303 303 302 302 302 300 299 299 299 299 298 298 297 297 297 297 296 296 296 296 297 297 297 297 298 297 297 298 297 297 298 298 298 297 296 296 296 296 296 297 297 297 297 297 298 298 298 299 300 300
319 320 320 321 322 322 322 322 321 321 321 321 321 320 320 319 319 319 318 317 317 316 315 315 314 313 312 311 310 310 309 308 306 305 304 303 303 302 302 302 301 300 300 300 299 299 298 297 297 297 297 296 296 296 297 297 297 297 297 297 297 297 297 297 297 297 297 297 296 296 296 296 296 296 296 296 296 296 297 297 298 299 299 299 300
319 320 320 320 320 321 321 321 321 321 320 320 321 321 321 320 319 319 319 318 316 316 315 315 314 313 312 310 309 308 308 307 305 304 303 303 303 303 302 301 301 301 300 300 300 299 298 298 297 297 297 296 296 296 297 297 297 297 297 297 297 296 296 296 296 296 296 296 296 295 295 296 296 296 296 296 296 296 296 298 299 299 299 300 300
317 319 319 319 318 319 319 319 318 318 317 317 318 320 321 321 320 319 319 318 316 316 315 314 313 312 310 309 309 308 307 306 304 304 304 303 303 302 302 301 301 301 301 300 300 299 298 298 297 297 297 296 296 296 296 296 296 296 296 296 295 295 294 294 294 295 295 295 295 295 295 295 295 295 295 295 296 296 296 298 298 299 299 300 301
314 315 316 316 316 315 316 317 317 316 315 315 316 317 318 319 319 318 318 317 316 315 314 313 312 311 310 309 309 308 306 305 304 304 303 303 302 302 301 301 301 301 301 300 300 299 298 297 297 297 296 296 296 296 295 295 295 295 294 294 293 293 293 293 294 294 294 294 294 294 294 295 295 295 295 296 296 297 297 298 298 299 299 300 301
310 311 312 313 314 313 313 314 316 316 315 315 315 316 317 317 317 318 317 316 314 313 313 312 310 309 309 308 306 305 305 304 303 302 302 302 301 301 301 301 301 300 300 299 298 298 297 297 297 296 296 296 295 295 295 294 294 293 293 292 292 292 292 292 292 292 293 293 293 294 294 294 295 295 295 295 296 297 297 298 298 299 299 299 301
308 309 309 310 311 312 313 313 314 315 315 316 316 316 317 317 316 316 315 313 312 311 310 309 308 306 306 305 304 303 303 303 302 302 301 301 301 300 300 300 299 299 298 298 297 297 297 296 296 296 295 295 295 294 294 293 293 292 291 291 291 291 291 291 291 291 292 292 292 293 294 294 294 295 295 296 296 297 297 298 298 298 298 298 299
306 306 307 307 308 310 311 312 312 313 314 316 316 316 317 316 315 314 313 311 309 308 307 305 305 304 304 303 303 303 302 302 301 301 301 300 300 300 299 298 298 297 297 296 295 295 295 295 294 294 293 293 293 292 292 292 292 291 291 291 291 291 291 291 291 291 291 292 293 293 294 294 294 295 295 296 296 296 296 297 297 297 297 297 298
305 305 305 306 306 307 309 310 311 311 312 315 316 316 316 315 314 313 311 309 308 306 305 304 303 303 303 303 303 302 302 302 301 300 299 299 299 298 297 297 296 295 295 294 293 293 293 292 292 292 292 292 291 291 291 291 291 291 291 291 291 291 291 291 291 291 291 292 293 293 294 294 294 295 295 295 296 296 296 296 297 296 296 297 297
Wind_Speed
13 12 12 11 10 9 9 8 7 7 6 6 5 4 3 3 3 4 6 9 8 6 4 3 2 4 5 2 2 6 9 10 11 10 9 7 6 6 6 5 4 5 5 5 7 10 8 9 11 10 10 10 9 10 10 10 9 7 7 6 4 4 4 5 5 5 5 5 5 6 7 8 9 9 9 9 9 9 10 10 11 11 10 10 11
12 12 12 12 10 10 10 8 7 7 8 7 6 5 4 4 5 4 6 8 8 8 7 5 5 5 6 4 3 5 9 12 11 10 10 8 7 7 6 6 5 4 4 4 7 10 8 8 9 9 10 10 10 10 9 9 10 8 7 7 6 4 4 4 5 5 5 5 5 5 6 7 7 7 8 8 8 8 8 9 10 10 10 10 10
12 11 11 12 11 11 11 10 9 9 9 8 8 8 7 6 7 6 6 7 8 8 9 9 8 6 7 7 4 4 9 13 11 11 10 9 8 8 7 7 6 5 4 4 5 9 9 9 8 6 8 10 11 10 10 10 11 11 8 8 8 5 5 4 5 6 6 5 5 5 5 5 6 6 7 7 7 7 8 8 9 9 9 10 11
12 11 10 11 11 10 10 10 8 9 10 10 12 13 11 8 7 8 8 7 8 8 9 10 9 7 8 9 5 2 8 13 13 11 12 10 9 8 8 8 6 5 5 4 5 6 8 9 8 6 6 9 11 11 10 10 10 11 9 10 9 7 6 5 5 6 6 6 5 5 5 5 5 5 6 6 7 7 7 8 8 9 9 9 11
12 11 10 9 10 11 10 9 9 12 13 14 16 15 11 8 7 9 10 9 10 10 10 11 9 7 7 7 4 3 6 11 13 13 12 12 11 10 10 9 8 7 6 5 5 5 7 8 8 7 6 7 9 11 11 10 10 10 10 10 10 8 7 5 6 6 6 6 6 5 5 5 5 5 5 5 6 6 7 7 8 8 8 9 10
12 11 10 9 10 11 10 9 11 15 15 14 15 12 9 7 7 10 12 12 13 12 13 12 7 7 6 5 4 5 7 7 9 12 13 13 13 12 12 11 9 8 7 7 7 6 6 7 7 7 7 6 7 9 9 10 10 10 10 10 10 10 8 6 6 6 5 6 6 6 5 5 5 4 4 4 5 6 6 6 7 7 8 8 9
12 11 10 10 11 10 8 9 12 14 13 12 12 10 9 6 6 9 11 12 13 11 13 12 7 7 6 5 4 5 5 7 6 7 11 15 15 14 13 12 11 9 7 7 8 8 7 7 6 5 6 7 7 8 9 9 10 10 10 10 9 10 10 9 7 6 5 5 6 6 5 5 4 4 4 3 4 4 5 5 6 6 7 7 8
13 12 11 12 12 9 7 9 11 12 11 11 11 12 10 5 4 9 13 15 14 12 13 12 9 8 6 5 5 4 3 4 5 5 6 12 15 15 13 13 12 11 9 9 9 9 8 8 7 5 5 6 6 9 10 10 10 10 11 11 10 10 11 11 9 7 6 5 6 7 7 6 5 4 4 3 3 4 4 4 4 4 5 6 7
14 14 14 13 11 9 9 11 12 12 12 11 11 14 12 7 7 10 13 15 15 14 13 11 10 8 7 5 4 4 3 1 3 5 5 7 11 12 13 13 13 13 13 12 11 11 10 10 9 7 6 5 6 8 10 10 10 11 11 11 11 10 10 11 10 9 8 6 6 6 7 7 7 5 4 4 4 4 3 3 3 3 4 5 6
13 13 15 15 12 10 10 11 12 12 12 11 11 14 13 9 8 9 10 11 12 12 10 9 8 7 6 5 3 2 2 0 1 3 4 6 8 8 9 11 13 14 15 14 13 13 13 13 12 11 10 8 8 7 9 10 10 11 12 11 10 11 11 10 11 10 9 8 7 5 5 6 7 7 5 4 4 4 4 4 3 3 4 5 6
10 10 12 15 13 10 9 9 9 10 11 10 10 13 12 9 8 7 7 8 8 8 7 7 6 5 4 3 2 1 1 1 2 1 3 5 6 6 6 6 8 11 14 15 15 15 14 14 14 14 14 13 12 10 10 10 9 11 12 10 10 11 11 11 11 11 11 10 9 7 5 5 6 7 7 6 5 4 4 4 4 4 4 4 5
6 7 8 10 9 7 8 8 9 9 9 8 8 11 10 8 7 5 6 7 7 6 5 4 4 4 3 2 1 2 2 3 3 3 1 3 4 4 5 5 4 4 8 12 14 16 15 15 15 15 15 15 15 14 14 12 11 11 11 10 10 11 12 12 10 11 13 12 11 10 8 6 5 6 7 6 6 5 4 5 4 5 5 5 5
5 5 6 5 3 4 5 6 8 8 5 5 6 8 8 8 7 5 5 6 6 6 6 5 4 4 2 2 3 3 3 2 3 4 3 1 1 2 3 4 5 4 4 5 7 10 12 13 14 15 16 16 16 17 17 16 14 13 13 12 12 12 13 13 10 9 11 13 13 12 11 9 7 7 7 6 6 5 5 4 4 5 5 5 6
4 5 6 5 3 4 4 5 6 5 4 5 5 6 7 8 8 7 7 6 6 6 6 5 4 4 2 1 2 3 2 1 1 2 3 3 2 1 1 2 3 4 5 5 5 5 6 7 8 11 13 15 17 18 19 18 17 16 15 15 14 13 13 14 13 11 9 10 12 14 14 12 10 9 8 7 6 5 5 5 4 5 5 6 6
4 4 7 7 5 5 5 6 7 6 6 6 6 6 8 8 9 9 9 8 7 6 7 5 4 5 3 1 1 1 2 2 2 3 3 2 2 1 1 1 2 3 4 4 5 4 3 3 4 6 9 11 14 18 19 19 18 17 17 17 17 16 15 15 15 15 12 10 10 13 15 14 12 11 10 10 9 7 7 6 5 5 6 6 6
5 5 8 9 6 4 4 6 9 8 6 7 7 7 8 9 9 10 10 9 8 7 8 6 6 6 3 1 1 2 1 2 2 3 3 2 1 1 1 2 3 3 2 2 2 1 1 1 2 6 8 9 11 13 15 16 17 16 16 18 19 19 18 16 16 17 17 14 12 13 15 14 12 11 11 11 11 10 9 8 7 6 6 7 7
8 8 9 9 7 5 4 7 9 9 8 8 8 7 6 7 8 9 9 10 9 8 8 7 8 7 4 3 1 1 2 1 1 2 2 1 1 2 2 2 2 2 1 0 1 1 2 2 1 4 8 9 10 10 11 12 13 14 15 17 19 21 21 19 17 18 18 16 14 13 14 15 13 12 12 12 12 12 11 10 9 8 8 8 8
9 9 10 9 7 7 7 8 9 10 10 10 10 9 8 7 7 7 8 9 10 10 9 8 8 7 5 4 2 1 2 1 1 0 2 2 2 1 1 1 1 1 2 2 1 1 3 3 2 3 5 8 10 12 12 12 12 13 14 15 17 20 23 23 20 18 18 17 16 15 15 15 14 13 12 12 13 13 12 12 11 10 10 9 9
7 8 9 9 9 8 8 9 10 12 12 12 12 11 10 8 7 6 7 8 9 10 10 10 9 8 7 4 3 3 3 2 2 1 1 1 2 2 1 1 3 3 4 3 3 4 5 4 4 3 5 7 9 11 14 14 14 14 15 15 15 17 20 23 23 21 20 19 18 18 18 17 17 16 14 14 14 14 14 13 12 12 11 11 11
8 7 8 10 10 10 10 10 13 13 12 12 12 11 11 10 9 8 7 7 7 8 10 10 9 9 9 6 3 2 2 2 2 2 2 0 2 3 3 3 3 4 5 6 6 7 7 7 7 6 5 7 9 11 11 12 13 13 13 14 15 16 17 18 21 22 22 22 21 20 19 19 20 19 18 17 16 16 16 16 15 15 14 13 13
9 9 10 12 13 13 12 13 15 14 12 12 12 11 10 10 11 11 10 8 7 6 8 8 7 9 10 8 5 4 4 4 3 2 3 2 1 2 5 5 4 5 5 3 5 7 8 8 8 6 4 5 9 13 12 12 13 12 11 11 12 14 15 16 17 20 22 23 24 23 21 20 20 21 21 20 19 19 18 18 18 18 17 16 15
10 11 13 14 14 13 12 13 14 12 11 11 11 10 9 9 10 11 11 11 10 9 9 8 7 8 9 9 8 7 5 5 5 4 3 3 2 1 4 5 4 5 7 6 6 7 8 10 10 9 8 9 12 16 16 14 13 12 11 10 10 11 13 14 14 16 18 20 23 24 23 23 22 21 21 21 22 22 21 20 19 20 20 19 18
13 13 14 14 14 12 11 11 11 11 10 9 9 9 9 9 9 10 11 12 12 12 11 11 11 11 10 10 9 9 7 7 7 7 5 4 3 1 4 5 3 4 6 6 9 12 10 7 5 5 6 7 9 10 12 11 9 10 11 11 11 11 12 12 12 12 14 16 18 19 21 24 26 25 24 24 24 24 23 22 20 21 21 21 20
14 15 15 14 12 11 11 11 12 11 11 9 8 8 9 10 10 10 11 12 12 11 11 11 11 12 12 11 10 10 9 9 7 7 6 5 4 2 4 5 3 4 6 7 12 17 17 17 15 13 13 14 14 11 9 7 5 5 6 7 8 10 11 9 9 9 10 12 13 12 15 19 21 23 25 27 27 25 25 22 20 21 22 21 21
15 15 15 14 12 12 12 12 11 11 11 11 10 9 9 11 12 11 11 10 9 9 10 10 9 10 11 10 9 8 8 8 6 6 6 5 5 4 3 4 3 4 6 7 9 12 14 16 15 15 16 17 17 17 17 14 9 5 5 6 5 5 6 6 7 7 7 9 9 8 9 12 13 16 19 22 24 25 25 23 21 22 23 23 23
16 17 16 14 14 14 14 13 12 11 11 11 11 11 11 12 12 11 11 10 9 10 11 11 10 9 9 8 8 8 8 6 5 6 5 5 7 7 5 3 3 5 6 6 6 7 10 12 10 12 15 16 17 16 16 16 13 10 7 7 6 5 6 6 6 6 6 7 7 7 8 9 10 12 14 16 19 20 22 22 23 24 26 25 24
17 17 16 16 16 16 15 14 13 12 12 11 12 12 12 12 12 12 11 10 10 12 12 11 11 10 9 7 7 7 6 5 4 4 4 5 7 8 7 5 3 5 5 6 6 7 11 11 8 11 16 16 17 16 14 14 13 12 10 8 7 7 7 7 6 6 6 7 8 9 9 9 9 10 12 13 15 16 17 18 20 22 24 24 23
18 17 16 15 15 16 16 15 14 12 11 10 10 11 12 12 12 12 11 11 11 13 12 11 11 10 9 8 7 6 6 6 6 5 4 5 6 6 8 7 4 3 4 5 4 3 9 13 9 11 18 19 17 16 13 12 11 11 11 10 9 9 8 8 8 8 7 6 7 8 9 10 10 10 11 12 13 14 15 15 16 18 21 22 22
19 18 16 14 14 15 17 16 14 12 11 10 9 10 10 10 10 11 11 10 11 11 11 10 10 9 8 8 8 8 8 9 10 9 8 6 5 5 6 6 5 3 1 3 4 2 6 13 10 13 19 19 16 14 13 12 12 11 11 10 10 10 10 10 10 10 9 8 7 7 9 10 10 10 12 14 15 16 16 16 16 17 18 19 20
19 18 17 14 13 14 16 16 15 13 12 10 8 9 9 9 9 9 10 9 10 10 9 9 9 7 6 7 7 7 7 7 8 8 8 6 6 6 6 6 5 4 2 1 3 2 5 12 12 15 19 17 15 14 13 13 13 13 12 12 11 11 11 11 10 10 10 10 9 9 9 10 11 12 14 16 18 19 19 19 18 18 18 18 18
18 18 18 16 15 15 15 15 15 14 12 10 8 8 8 7 7 7 7 7 7 9 8 8 8 7 6 6 6 5 5 4 5 5 5 4 4 5 6 5 6 6 4 1 1 3 8 12 13 15 15 15 15 15 15 15 15 14 13 12 12 12 12 11 11 11 11 11 11 11 11 10 11 12 14 16 18 19 21 21 21 20 19 18 18
18 18 18 17 16 16 15 15 15 15 13 11 10 9 8 7 7 7 7 6 5 6 5 6 8 8 6 5 4 4 4 3 3 3 3 3 3 4 4 4 5 6 6 4 2 6 10 11 12 14 14 15 16 16 18 18 16 14 14 14 14 14 13 13 13 12 12 13 13 13 13 12 12 13 14 15 17 18 20 20 21 21 21 19 19
19 18 18 17 16 16 16 16 16 15 14 13 12 11 11 9 8 8 8 8 7 5 4 4 6 6 5 4 3 2 3 2 2 2 2 3 3 4 3 3 4 5 6 7 5 8 11 12 13 14 15 17 18 18 19 18 17 16 15 14 14 15 15 15 14 13 13 14 14 14 14 14 13 13 14 14 15 17 18 18 19 20 21 20 18
21 19 18 17 16 16 16 16 16 16 16 15 15 14 14 12 11 10 10 10 9 8 7 6 6 5 4 3 3 2 1 2 1 2 1 1 2 3 3 3 3 5 6 8 8 8 12 16 16 16 17 18 19 19 19 19 19 18 16 16 15 15 15 15 14 14 14 14 15 15 14 14 14 14 14 13 14 14 15 15 16 18 20 20 18
22 21 19 18 17 16 16 16 16 17 16 17 16 15 15 15 14 13 13 12 12 11 10 9 8 7 5 4 4 3 2 1 1 1 1 1 2 2 3 3 4 5 6 8 9 8 10 15 17 18 20 20 19 19 19 18 18 18 18 17 16 15 15 15 15 15 15 15 16 16 15 15 15 14 14 13 13 13 13 13 13 15 18 19 18
23 23 22 20 19 18 17 16 16 16 16 16 16 16 15 16 16 16 15 15 14 14 13 12 11 9 7 6 6 5 4 3 2 1 1 2 3 3 4 5 6 7 8 8 9 8 9 13 15 17 19 20 20 20 20 20 19 19 19 18 17 17 16 15 16 17 16 16 16 16 16 16 16 16 15 15 14 14 13 13 12 12 13 16 18
25 25 24 23 21 21 20 18 17 17 17 17 17 17 17 17 17 17 16 16 16 16 15 14 14 13 11 9 8 7 6 5 4 3 3 4 5 5 6 7 8 8 9 9 9 9 10 13 15 17 18 19 20 20 20 22 23 23 21 20 19 19 19 18 17 18 19 18 17 17 17 17 17 17 16 15 15 14 14 13 13 13 13 14 17
25 27 26 24 24 23 22 20 19 19 19 19 18 18 18 19 19 18 18 18 18 17 17 16 15 15 13 11 10 10 8 6 6 6 6 6 6 7 8 8 10 12 13 11 11 10 11 12 14 16 18 19 20 21 21 22 23 23 24 24 22 21 22 22 21 21 22 21 20 19 19 19 19 18 17 15 14 13 13 13 13 13 12 13 14
23 26 25 24 24 24 23 23 22 22 22 22 21 21 21 22 21 20 20 19 19 19 18 17 16 16 15 13 12 12 10 8 8 8 7 7 8 8 8 9 12 15 14 12 11 11 12 13 13 15 17 19 20 21 22 22 21 21 23 26 27 27 28 27 26 25 24 24 22 21 20 20 20 19 18 16 14 14 14 14 14 14 14 14 14
20 20 19 20 20 21 22 23 24 24 24 24 24 24 24 24 24 23 22 21 21 20 20 19 18 17 16 14 15 14 12 10 10 10 9 9 8 8 8 9 12 14 13 12 11 11 12 13 14 15 17 19 21 22 23 23 22 23 24 25 26 28 30 30 29 26 24 24 24 23 22 22 22 22 21 20 19 18 18 18 18 18 17 17 17
17 16 15 15 16 17 19 21 22 24 24 23 23 24 24 24 26 26 26 24 23 23 23 22 20 18 17 16 16 16 13 11 10 10 10 9 8 7 8 9 11 11 10 9 9 10 12 14 15 16 18 20 21 23 23 22 21 22 24 24 25 27 29 31 30 24 21 22 25 25 25 25 26 27 26 26 25 25 24 24 24 24 24 23 22
16 15 15 15 16 17 18 19 20 22 23 23 22 22 23 23 24 26 27 27 26 25 25 24 22 21 19 19 18 17 14 12 11 10 10 9 9 8 8 9 10 8 7 7 7 8 10 12 13 14 16 18 20 21 22 22 21 21 22 22 25 27 28 29 29 25 21 23 28 31 31 30 30 30 30 29 29 29 29 29 29 28 27 27 27
12 12 13 14 14 15 16 17 18 19 20 20 20 21 22 22 22 23 25 27 28 27 27 26 25 23 22 21 20 18 15 12 11 10 10 10 9 8 8 9 9 7 7 7 7 7 8 10 11 12 14 17 20 20 20 22 23 22 22 22 23 23 22 20 21 24 25 27 30 33 35 34 30 29 30 30 29 29 29 29 28 27 27 27 27
8 10 11 13 13 14 14 14 14 15 15 15 15 17 19 21 21 22 23 25 27 28 28 27 26 25 25 23 20 18 15 12 11 10 10 11 11 9 9 9 9 8 8 9 9 9 10 10 12 13 13 16 18 19 20 22 23 23 24 23 22 21 20 17 17 22 28 31 31 33 35 33 28 26 28 28 28 28 26 23 23 23 24 24 24
10 11 11 11 12 12 12 11 10 10 10 11 11 12 14 16 18 20 22 24 26 27 28 28 27 28 26 23 20 16 14 12 11 11 11 11 11 10 9 9 9 9 10 11 11 12 12 13 14 15 15 15 17 18 18 19 20 22 23 23 23 22 22 21 22 26 30 31 29 29 31 32 28 24 26 28 29 28 24 19 19 21 22 22 22
8 10 9 9 9 9 9 9 8 8 8 9 10 10 12 14 16 18 21 23 24 25 26 27 27 27 25 21 17 13 12 12 12 12 12 12 11 11 9 9 10 10 12 12 13 13 13 14 15 17 16 15 16 17 17 16 16 17 19 22 23 24 26 27 29 31 32 29 24 22 24 27 26 24 26 29 29 26 22 20 19 19 19 20 21
3 4 5 6 6 6 8 9 10 10 9 9 10 10 10 12 13 14 18 21 22 22 24 25 24 22 19 15 12 11 12 12 12 11 11 11 11 10 9 9 10 11 11 12 12 12 13 14 15 15 15 15 15 15 16 15 15 17 20 23 25 27 30 32 33 33 31 28 23 19 20 23 23 24 26 27 26 24 21 17 14 14 15 17 19
2 3 3 5 7 8 8 8 10 12 12 11 11 11 10 9 10 11 14 17 18 18 19 20 18 15 12 11 11 11 11 11 10 10 11 11 11 10 10 10 10 10 10 10 11 11 12 12 13 13 14 15 16 18 19 20 22 23 24 26 26 26 27 27 29 30 29 26 22 19 21 23 22 23 25 24 22 20 17 13 11 13 16 17 19
5 5 5 6 8 9 10 10 11 12 13 14 13 12 11 8 7 8 11 14 15 16 15 14 12 11 9 9 10 10 10 10 10 11 12 12 11 9 8 9 9 9 9 10 11 11 12 13 14 16 18 20 22 24 25 26 26 25 24 23 22 22 21 19 19 22 24 25 22 19 22 23 21 21 24 23 18 16 15 12 11 13 16 19 20
7 7 8 8 8 9 10 11 11 12 13 15 15 14 12 8 6 7 12 15 15 15 13 12 12 12 12 10 9 9 9 9 9 10 10 9 8 6 6 6 8 10 11 13 15 16 17 18 19 19 21 22 23 24 23 22 21 18 18 20 20 21 20 17 17 20 22 22 19 16 18 21 19 20 22 21 18 17 14 11 11 15 20 22 22
8 9 11 11 11 12 11 11 12 12 13 15 16 14 11 9 8 10 15 17 16 15 15 15 12 11 11 10 9 9 10 10 9 8 6 5 5 5 6 8 10 12 13 14 15 16 17 17 17 17 17 16 17 17 16 15 14 13 14 16 18 20 21 20 19 18 15 13 13 14 17 21 20 20 19 16 13 11 10 11 15 21 24 23 21
Wind_Direction
203 208 210 206 204 207 209 215 217 223 226 224 224 220 223 214 198 191 180 181 183 184 177 166 168 183 188 179 206 217 212 192 181 185 184 175 165 161 166 168 184 202 213 210 188 193 204 196 188 192 193 187 184 182 178 172 169 174 186 193 180 153 139 121 121 119 116 117 115 115 114 115 117 116 117 119 116 113 115 114 113 112 107 105 104
209 211 210 206 207 210 211 217 221 225 228 229 235 234 228 226 220 209 191 192 194 190 189 195 193 194 206 201 178 198 203 192 187 193 191 184 174 167 169 175 181 189 199 196 186 196 208 203 200 204 199 196 193 192 189 176 172 176 189 208 203 182 169 146 138 130 126 127 121 122 119 116 118 119 121 123 119 117 119 119 121 121 118 117 113
215 212 207 207 210 213 217 221 220 217 218 221 228 230 224 226 227 216 205 202 201 195 194 197 196 195 203 206 192 183 197 194 194 201 199 190 182 179 179 181 182 179 180 182 186 194 201 203 212 220 206 202 199 198 195 185 183 179 185 209 210 203 192 171 157 145 137 135 132 131 126 123 120 120 123 123 121 119 119 118 119 120 117 115 114
217 212 208 209 210 209 213 214 210 205 207 211 212 212 212 221 225 216 216 215 213 206 201 206 211 207 200 206 210 171 194 199 200 204 204 198 192 193 191 186 184 183 181 180 188 194 198 203 214 223 214 206 203 203 200 197 197 183 184 210 213 210 204 190 177 163 150 143 141 138 135 134 127 123 123 123 124 124 123 121 120 120 118 118 119
219 211 205 204 204 204 205 203 200 197 198 202 203 202 210 232 228 211 217 225 229 226 220 225 225 213 199 202 196 129 167 196 207 212 212 206 200 204 201 192 188 188 189 188 194 194 196 205 212 215 217 212 205 205 203 203 209 196 190 211 217 214 209 197 185 178 168 154 149 147 145 141 137 136 131 130 131 129 128 129 129 127 124 124 123
218 212 206 199 197 200 202 201 199 199 202 201 201 200 211 237 236 221 223 227 235 234 223 222 214 198 188 184 171 131 129 154 189 208 217 217 210 209 208 200 193 192 195 197 202 199 200 206 209 210 209 213 208 204 206 204 213 209 195 208 221 216 210 208 199 187 180 171 162 156 155 154 150 151 141 137 138 136 134 132 135 137 136 134 133
216 213 208 200 200 198 201 207 202 203 211 210 204 198 197 218 231 218 206 200 212 213 204 201 186 180 178 169 162 145 128 114 132 178 207 218 215 213 214 209 202 200 203 204 208 208 207 207 208 214 208 212 210 206 217 216 216 217 204 209 225 221 211 212 216 204 194 193 183 170 167 170 166 164 160 153 149 145 140 137 142 146 147 148 148
210 209 204 201 206 204 204 212 210 211 220 219 210 200 193 184 176 181 170 164 170 166 170 177 169 163 160 162 166 166 159 111 104 127 180 212 217 218 220 219 213 210 213 214 217 217 217 216 212 216 217 222 216 208 220 226 225 225 216 214 222 224 216 213 220 220 212 206 199 193 184 181 179 175 176 175 168 161 153 149 152 154 159 163 156
206 207 206 205 208 206 207 212 215 221 223 218 206 199 195 172 147 163 165 159 156 148 150 160 160 155 148 149 158 168 185 140 98 104 132 181 203 216 225 229 226 221 221 220 223 223 223 225 222 223 225 229 227 216 215 223 231 232 226 221 220 225 222 215 218 226 228 226 220 217 206 194 190 187 184 186 188 181 176 170 165 167 168 169 163
202 203 208 210 205 202 210 213 216 222 220 215 201 192 195 184 158 158 166 165 163 158 153 157 160 159 156 148 142 148 160 128 60 98 121 147 167 191 211 225 232 231 232 230 229 228 227 228 228 228 231 233 236 232 220 219 227 232 230 226 222 229 229 221 217 218 227 238 237 235 236 217 197 193 190 183 191 195 193 189 188 192 184 180 177
197 197 207 213 209 203 211 214 214 214 210 210 199 189 192 190 173 161 164 166 165 163 162 167 166 167 173 164 143 110 35 344 337 46 116 130 145 160 171 193 219 230 236 238 238 237 234 232 231 231 233 234 237 240 238 232 225 228 233 229 225 233 234 228 222 216 217 228 238 238 247 246 209 197 195 185 188 198 203 205 204 206 205 204 196
192 192 202 211 211 208 213 209 210 211 203 202 196 188 188 188 181 170 171 167 158 161 169 178 180 175 183 192 216 307 310 306 303 294 182 127 121 134 149 155 163 202 227 236 241 243 243 242 239 239 240 240 240 240 241 243 237 232 236 231 229 236 235 231 229 222 215 214 226 237 240 250 231 199 191 186 187 193 205 212 216 215 216 219 216
166 167 174 185 175 180 194 186 193 200 180 176 190 187 182 186 189 182 183 175 161 167 175 179 181 179 190 261 293 296 291 284 279 281 271 230 141 120 123 133 136 138 164 203 228 239 247 250 249 248 248 247 247 246 243 244 244 240 237 231 230 237 236 238 241 232 223 213 212 227 236 242 239 210 194 191 190 196 207 214 224 226 226 226 226
149 167 179 177 137 123 122 126 152 165 138 144 184 192 180 184 196 196 191 183 170 167 171 175 175 172 163 357 323 305 297 316 309 293 287 281 279 232 132 118 133 130 135 151 170 197 224 245 255 255 253 251 249 249 247 245 246 245 242 232 229 235 234 239 247 243 238 227 214 220 230 236 236 227 217 212 206 204 209 215 224 232 237 234 232
133 169 185 179 145 109 103 108 118 125 128 138 165 184 181 184 198 200 193 185 182 179 180 185 172 156 133 81 351 342 335 334 2 355 328 317 315 277 224 172 132 124 125 134 144 159 197 230 254 259 260 256 247 245 247 249 251 252 251 243 237 237 233 234 242 246 247 246 235 228 231 233 232 230 228 226 225 221 218 219 221 230 240 239 237
143 147 158 159 144 114 101 112 111 112 123 130 145 171 182 189 196 200 198 189 184 186 190 193 181 162 134 108 142 78 29 299 357 19 16 21 31 52 154 174 150 139 142 163 164 148 198 217 239 251 253 255 248 242 243 249 254 255 256 253 246 243 240 235 235 241 246 247 245 241 238 237 232 228 227 227 229 228 226 225 223 228 236 240 242
141 139 141 143 140 132 125 119 111 107 113 117 126 141 157 178 191 199 204 200 195 188 188 193 188 181 163 139 114 100 218 250 28 27 23 51 74 60 79 124 132 114 98 190 202 259 293 277 270 264 253 250 248 245 246 250 254 255 256 255 250 245 243 241 234 234 241 242 242 244 242 241 239 232 230 230 232 232 232 231 228 229 233 239 244
132 133 135 135 136 143 145 134 120 112 114 114 114 118 125 150 178 193 204 209 206 192 186 191 191 195 193 161 117 116 171 149 115 52 359 44 62 33 55 79 63 7 352 3 47 328 313 309 309 306 285 266 253 248 252 256 258 258 260 259 253 246 244 244 240 233 236 236 237 242 243 243 245 242 236 234 235 234 233 232 230 230 232 238 243
129 128 135 138 134 136 145 147 137 125 123 121 115 114 117 128 153 179 198 203 202 198 192 190 188 195 202 188 132 104 101 108 143 154 357 24 37 43 27 310 308 304 292 283 284 282 282 283 281 289 300 298 283 262 253 255 260 260 260 260 255 249 246 246 244 239 237 235 235 239 241 241 245 247 246 242 239 237 236 235 234 233 234 236 240
129 125 135 145 137 128 134 146 144 137 134 131 126 125 122 121 129 144 169 183 196 201 188 184 190 193 196 197 177 127 111 108 132 136 123 140 333 13 22 348 322 315 290 264 269 278 276 277 280 279 290 308 305 287 267 260 268 269 264 261 255 252 250 248 248 245 242 239 237 240 242 243 245 246 248 248 245 243 240 240 239 240 241 240 241
133 124 125 136 134 128 131 138 140 139 136 131 129 129 126 123 123 124 130 143 158 165 157 163 180 179 178 177 157 126 111 97 105 120 100 94 295 335 2 7 9 12 3 317 285 286 287 287 286 284 292 312 311 307 302 286 278 278 276 271 263 256 254 254 253 248 246 244 242 242 243 246 248 249 251 255 255 253 250 247 246 246 244 242 243
141 129 124 128 128 126 127 131 137 140 138 133 132 130 127 123 122 122 124 123 124 126 125 128 136 142 149 150 139 128 113 88 82 94 96 92 90 355 351 10 16 21 28 18 351 334 315 300 287 282 286 297 305 310 312 304 287 278 277 277 272 263 256 257 258 251 247 245 243 242 243 244 249 252 254 259 259 257 257 255 253 253 250 243 241
145 138 131 130 128 124 121 121 129 138 141 142 145 144 142 136 127 126 129 125 120 118 116 114 115 116 120 124 120 115 110 97 87 88 90 85 78 13 348 7 4 358 10 21 37 43 37 18 354 336 340 344 336 319 306 303 300 293 289 285 280 273 264 260 261 256 249 246 244 243 244 245 248 251 253 257 257 255 255 254 251 252 252 245 239
148 143 138 137 136 130 124 119 119 123 126 130 135 142 147 150 144 135 133 131 129 129 123 119 118 114 110 110 111 107 101 96 92 87 87 89 95 85 7 7 353 352 11 44 65 66 64 61 59 56 50 47 45 36 16 358 341 326 318 307 288 275 270 267 270 272 264 259 258 254 249 248 249 252 253 256 257 256 256 255 250 247 248 247 241
152 149 147 147 146 139 131 123 118 117 117 117 119 125 133 146 151 148 143 142 143 144 135 126 123 115 109 108 109 107 97 90 89 90 93 96 87 67 21 10 354 343 5 39 68 73 62 53 52 52 48 46 46 46 42 39 36 35 30 17 354 303 288 293 294 300 297 285 281 274 265 261 260 261 260 259 261 261 259 258 256 250 249 249 245
155 152 153 154 151 145 138 131 126 124 125 126 126 126 127 133 141 145 145 146 146 143 134 126 119 111 110 110 105 99 94 87 87 87 84 79 69 49 21 10 358 354 3 17 44 61 46 36 34 33 33 32 33 35 36 38 39 37 38 37 31 13 344 325 306 300 298 293 290 281 280 281 278 277 275 271 269 268 265 263 263 262 258 253 250
157 154 154 157 156 152 149 144 139 135 134 135 134 132 129 127 128 130 132 136 140 136 129 125 119 110 102 101 101 96 83 71 68 71 75 77 71 56 44 43 11 353 357 5 31 47 31 22 15 12 14 12 13 17 20 25 32 31 29 30 26 17 2 344 327 313 298 288 283 277 276 280 282 285 285 282 278 277 276 272 268 269 267 264 262
159 157 156 159 160 160 158 153 149 148 143 138 133 132 132 128 125 122 119 123 130 131 129 125 118 111 100 89 92 95 78 69 67 68 88 96 82 62 50 60 67 16 347 350 7 40 21 14 5 357 1 0 1 8 14 17 21 21 20 19 13 6 357 347 341 333 320 304 287 275 271 273 278 287 293 296 294 291 289 285 278 275 273 271 269
163 161 161 161 161 163 163 159 156 155 152 148 142 138 138 135 131 125 121 120 123 126 129 127 119 114 105 89 84 93 89 80 77 77 86 91 82 60 35 43 63 70 63 347 322 268 3 8 2 349 353 358 6 11 13 13 10 5 2 360 357 353 348 344 338 332 328 321 308 288 277 273 275 285 294 299 300 298 295 292 288 284 279 275 272
169 166 165 165 165 165 165 165 163 161 159 160 158 153 151 148 142 135 131 131 128 124 125 129 129 126 116 97 82 90 95 86 81 79 76 69 56 43 28 27 33 43 96 340 313 297 345 353 354 350 351 357 6 6 4 3 359 355 352 349 348 347 345 343 339 335 332 327 322 313 302 292 287 290 294 297 299 298 295 292 290 287 283 280 277
179 174 172 172 171 169 168 168 170 171 171 172 172 170 166 163 157 149 149 153 145 134 129 133 139 144 134 108 83 82 93 92 94 87 64 48 30 19 16 16 11 5 2 346 283 307 333 340 344 348 350 351 353 353 350 349 350 351 352 351 349 348 347 347 347 345 342 338 333 326 318 311 306 303 301 300 299 297 295 292 289 287 285 282 278
188 183 180 179 177 176 173 172 176 178 178 180 184 185 181 181 179 171 172 183 176 155 148 145 146 153 152 127 98 83 89 104 121 107 59 40 24 10 9 10 9 1 354 351 285 294 322 337 339 342 345 343 343 346 344 345 349 353 354 354 352 351 350 350 350 350 350 346 341 334 328 322 317 313 309 305 301 297 293 291 288 285 283 283 280
196 192 188 185 183 182 180 180 182 184 186 187 191 195 194 195 197 191 190 197 197 185 186 184 164 163 169 158 141 114 91 90 136 150 84 54 41 35 46 49 33 18 4 0 336 310 321 335 338 339 340 338 339 344 348 350 354 355 354 353 353 353 353 350 346 347 349 348 344 340 335 333 330 325 319 313 306 300 294 289 285 282 280 279 279
202 201 198 194 190 187 186 187 187 189 192 193 195 198 199 202 204 204 205 209 209 206 210 217 204 195 206 197 185 187 137 53 77 163 139 48 24 25 45 49 25 15 4 358 352 334 326 330 334 336 339 340 342 345 348 350 350 350 351 350 349 350 351 350 348 348 348 348 346 344 342 341 340 338 332 323 316 310 303 295 285 277 274 274 276
207 208 208 204 200 199 198 198 198 197 198 198 199 200 202 206 208 210 213 216 217 216 218 224 221 216 220 224 227 229 235 308 358 128 121 4 353 359 8 1 352 351 348 345 347 346 334 329 331 335 338 340 342 344 343 340 340 343 344 344 343 343 345 346 346 346 345 345 343 341 339 338 336 335 332 326 321 317 315 311 301 285 273 268 270
211 212 213 210 208 208 209 210 211 211 210 207 206 207 208 211 213 215 216 217 219 221 222 226 226 225 227 226 232 238 245 268 291 300 287 304 316 324 330 330 331 332 334 336 338 341 339 333 331 333 336 337 337 338 337 333 332 335 334 333 333 333 334 337 340 341 340 338 338 337 334 331 329 329 330 329 326 322 319 318 316 307 290 274 269
216 215 214 214 214 215 215 216 217 220 221 219 217 218 218 218 219 221 221 220 221 223 226 228 228 231 235 234 234 237 242 254 263 268 274 286 299 306 312 320 326 331 330 332 334 336 339 339 334 332 334 337 336 337 340 339 335 333 328 324 325 326 324 322 326 333 334 330 330 332 329 326 325 325 328 330 329 329 328 325 321 318 309 295 285
223 219 215 216 218 219 221 222 223 225 226 224 225 229 230 227 224 224 225 225 226 226 228 229 228 230 234 234 231 231 235 242 245 253 268 278 287 298 310 319 326 329 328 328 332 336 340 343 341 338 341 345 344 342 345 347 343 338 333 327 323 324 325 322 320 324 327 324 323 324 324 322 322 323 324 325 326 325 327 329 330 328 324 316 307
224 220 217 219 222 224 226 226 228 230 228 226 228 232 235 235 231 229 228 228 228 228 228 230 228 227 230 231 225 224 228 235 240 247 258 266 276 289 301 312 320 324 324 325 331 336 342 346 348 347 346 348 348 345 344 346 345 345 346 340 332 329 331 330 326 324 322 317 314 313 314 314 314 314 315 316 317 319 319 321 324 326 328 327 324
221 217 214 216 220 225 230 232 232 233 231 228 229 233 236 237 237 235 234 231 230 229 229 230 228 224 226 227 221 219 223 232 240 246 252 258 266 273 283 299 312 317 318 322 329 337 344 348 350 349 344 342 345 345 344 347 345 342 344 342 334 331 332 330 328 329 325 318 314 311 310 311 309 307 308 309 309 312 313 312 313 314 315 317 318
230 232 230 229 231 231 231 232 232 232 231 230 232 236 239 241 240 238 236 235 233 230 229 228 226 223 224 223 217 217 224 232 240 246 250 254 257 259 273 296 308 312 312 314 323 333 339 342 342 342 339 337 340 341 339 341 340 333 332 332 328 329 331 327 326 329 328 325 325 321 317 318 316 311 309 307 307 309 309 307 307 308 307 307 308
242 246 248 249 248 243 239 237 237 237 238 240 244 248 248 247 244 240 238 237 234 231 229 226 222 220 220 219 217 219 226 232 239 247 253 255 255 259 278 298 306 305 302 304 310 320 327 330 330 331 329 327 332 335 332 331 333 328 325 327 325 326 328 326 325 327 328 330 331 327 322 323 323 319 314 310 307 307 307 305 305 307 307 306 304
248 251 254 255 253 251 250 249 249 249 250 254 257 258 255 251 249 245 242 239 236 231 228 225 220 216 216 216 218 221 226 230 237 248 256 258 260 269 288 302 304 297 290 288 290 297 301 303 309 315 315 315 322 329 327 327 330 326 320 320 320 321 324 323 318 317 320 326 328 323 319 320 324 322 318 317 314 311 309 305 303 306 307 306 305
244 250 255 257 259 263 264 265 266 267 269 272 270 266 260 255 253 251 247 243 238 232 227 224 220 217 215 213 213 217 224 232 241 249 254 257 265 277 291 298 296 291 287 283 282 283 284 286 291 298 302 306 314 322 326 326 324 320 316 316 316 315 314 307 299 300 309 318 321 316 312 314 320 320 317 318 319 319 319 314 309 309 308 308 308
243 248 250 252 258 263 266 268 275 282 289 293 287 280 274 266 258 254 251 246 240 233 228 223 220 217 213 207 206 211 222 233 241 246 248 253 263 271 279 286 288 287 286 283 282 282 282 282 284 292 301 305 306 312 319 319 316 314 314 314 314 313 308 302 297 298 304 312 315 310 306 308 315 317 314 316 319 320 321 320 316 311 310 312 312
238 242 243 248 254 257 260 264 271 284 296 297 291 287 284 278 270 261 255 249 242 236 230 223 218 214 208 204 205 212 225 235 237 239 243 250 256 261 267 275 281 283 281 280 281 280 282 284 286 292 300 300 299 303 306 306 307 309 311 312 313 311 306 302 300 301 303 308 312 305 297 302 312 313 311 316 321 320 317 313 309 309 313 318 318
217 239 247 259 269 277 279 276 277 285 296 296 291 288 286 284 280 270 257 249 242 236 229 221 214 209 205 206 216 225 231 234 234 235 241 247 250 255 264 272 274 275 273 272 272 274 277 280 283 287 292 293 295 299 300 300 300 300 301 303 304 304 303 301 301 301 301 305 308 300 289 295 307 309 308 316 322 323 323 322 319 322 324 325 325
249 271 280 284 289 294 293 285 278 277 281 285 285 283 282 284 282 267 249 239 231 220 211 204 199 198 203 212 219 222 221 222 226 234 241 244 247 252 259 263 263 262 261 264 268 272 276 278 281 286 290 293 297 298 299 300 300 301 302 301 300 301 301 300 299 299 301 304 306 298 287 293 303 304 306 316 322 322 328 333 330 328 326 327 332
266 271 280 287 289 285 279 277 277 274 273 275 274 273 273 276 276 253 229 215 203 190 183 181 182 186 195 205 207 207 208 214 227 237 241 243 244 245 247 251 256 261 265 271 276 279 280 282 284 287 289 291 293 295 297 299 299 302 304 304 305 306 302 298 296 298 301 304 308 301 286 287 299 304 305 313 316 317 324 326 318 318 322 326 332
271 279 288 292 294 290 281 276 274 275 275 271 268 268 268 269 261 223 199 186 175 166 162 165 176 185 186 189 200 210 217 225 233 237 237 237 237 239 250 264 278 286 289 291 292 292 291 291 291 291 291 294 296 299 302 303 303 306 306 306 310 309 301 294 294 299 301 303 314 313 288 285 300 306 305 309 308 307 311 309 306 314 320 325 329
272 284 293 298 302 301 295 286 276 272 272 268 262 257 252 245 228 204 189 178 168 163 164 165 170 183 192 199 211 222 227 229 231 233 236 243 252 268 285 295 303 306 306 307 308 309 308 307 308 309 308 310 312 314 317 318 319 321 314 309 308 304 298 293 293 299 300 300 318 319 296 291 300 301 300 305 307 306 303 299 306 315 318 323 329